GFSGL_prec_pwat_072.txt.gz
Precipitable_Water
1.38 1.37 1.24 1.04 1.12 1.24 1.29 1.31 1.35 1.45 1.54 1.46 1.49 1.50 1.48 1.43 1.40 1.28 1.28 1.29 1.33 1.37 1.38 1.26 1.09 1.19 1.16 1.22 1.22 1.26 1.24 1.17 1.02 1.16 1.27 1.36 1.35 1.33 1.42 1.53 1.61 1.65 1.58
1.40 1.44 1.37 1.24 1.05 1.09 1.16 1.24 1.30 1.37 1.48 1.50 1.48 1.49 1.49 1.44 1.40 1.27 1.14 1.22 1.24 1.29 1.29 1.28 1.16 1.15 1.14 1.22 1.20 1.15 1.19 1.27 1.18 1.05 1.20 1.23 1.23 1.37 1.43 1.45 1.57 1.53 1.48
1.37 1.38 1.42 1.38 1.21 1.02 1.04 1.12 1.21 1.29 1.41 1.49 1.47 1.42 1.44 1.44 1.40 1.32 1.21 1.12 1.14 1.29 1.43 1.37 1.31 1.30 1.24 1.24 1.24 1.27 1.32 1.37 1.36 1.25 1.19 1.29 1.26 1.34 1.30 1.44 1.34 1.33 1.49
1.57 1.49 1.38 1.37 1.36 1.22 1.08 1.06 1.10 1.18 1.22 1.31 1.38 1.41 1.39 1.38 1.39 1.38 1.28 1.16 1.14 1.14 1.18 1.27 1.36 1.36 1.24 1.26 1.28 1.28 1.34 1.33 1.30 1.19 1.14 1.11 1.14 1.29 1.37 1.13 1.10 1.32 1.31
1.69 1.64 1.56 1.46 1.44 1.45 1.32 1.16 1.05 1.07 1.14 1.20 1.20 1.33 1.42 1.40 1.34 1.30 1.28 1.19 1.13 1.10 1.13 1.15 1.20 1.31 1.35 1.38 1.34 1.28 1.29 1.24 1.19 1.12 1.08 1.10 1.10 1.00 0.98 1.11 1.14 1.29 1.39
1.78 1.70 1.73 1.67 1.50 1.38 1.39 1.37 1.28 1.05 1.04 1.08 1.13 1.14 1.25 1.32 1.32 1.30 1.27 1.19 1.16 1.13 1.04 1.05 1.12 1.15 1.17 1.22 1.30 1.33 1.31 1.18 1.07 1.06 1.04 0.97 0.92 1.00 1.09 1.15 1.26 1.25 1.16
1.83 1.80 1.75 1.74 1.60 1.47 1.42 1.39 1.35 1.29 1.17 1.07 1.07 1.11 1.16 1.23 1.26 1.24 1.26 1.23 1.18 1.16 1.12 1.08 1.05 1.06 1.09 1.11 1.11 1.14 1.18 1.24 1.26 1.17 1.02 0.97 1.01 1.08 1.20 1.27 1.36 1.35 1.35
1.88 1.87 1.90 1.82 1.78 1.68 1.52 1.35 1.32 1.37 1.32 1.22 1.17 1.12 1.13 1.18 1.21 1.19 1.21 1.25 1.21 1.19 1.18 1.14 1.09 1.05 1.06 1.05 1.04 1.00 1.00 1.02 1.08 1.17 1.18 1.14 1.26 1.28 1.42 1.53 1.49 1.53 1.55
1.82 1.85 1.98 2.05 1.92 1.84 1.71 1.54 1.40 1.31 1.29 1.30 1.28 1.29 1.23 1.19 1.24 1.19 1.16 1.18 1.19 1.17 1.20 1.20 1.19 1.14 1.13 1.15 1.11 1.00 0.97 0.95 1.08 1.13 1.20 1.28 1.32 1.45 1.59 1.55 1.54 1.45 1.30
1.78 1.92 1.98 2.01 2.11 1.95 1.85 1.77 1.70 1.52 1.33 1.29 1.27 1.31 1.30 1.26 1.33 1.30 1.25 1.20 1.13 1.14 1.19 1.19 1.19 1.20 1.20 1.20 1.16 1.06 0.95 0.89 0.99 1.03 1.13 1.28 1.38 1.51 1.70 1.82 1.74 1.41 1.40
1.75 1.82 1.91 1.96 2.00 1.98 1.91 1.94 1.87 1.71 1.59 1.45 1.34 1.27 1.26 1.29 1.28 1.30 1.30 1.25 1.15 1.08 1.09 1.08 1.12 1.18 1.19 1.20 1.18 1.12 1.02 1.05 1.06 1.10 1.21 1.34 1.47 1.64 1.77 1.89 1.73 1.59 1.48
1.50 1.51 1.77 1.92 2.06 2.02 1.92 1.90 1.91 1.80 1.67 1.55 1.47 1.39 1.36 1.30 1.27 1.28 1.28 1.28 1.23 1.14 1.05 1.08 1.12 1.16 1.17 1.20 1.23 1.19 1.19 1.15 1.13 1.15 1.27 1.32 1.40 1.56 1.76 1.73 1.74 1.79 1.90
1.68 1.62 1.67 1.88 2.12 2.03 1.92 1.83 1.82 1.76 1.64 1.60 1.51 1.43 1.34 1.38 1.37 1.31 1.26 1.25 1.24 1.24 1.20 1.18 1.19 1.24 1.26 1.27 1.26 1.23 1.21 1.16 1.17 1.25 1.24 1.26 1.43 1.65 1.74 1.69 1.78 1.88 1.96
1.46 1.61 1.62 1.78 2.05 2.03 1.98 1.90 1.83 1.75 1.63 1.64 1.58 1.47 1.44 1.48 1.45 1.39 1.31 1.30 1.29 1.32 1.33 1.33 1.31 1.33 1.36 1.35 1.30 1.26 1.22 1.23 1.25 1.21 1.20 1.32 1.50 1.65 1.63 1.68 1.61 1.83 1.80
1.30 1.43 1.57 1.78 1.91 2.05 2.00 1.89 1.84 1.84 1.80 1.72 1.69 1.71 1.63 1.49 1.52 1.64 1.59 1.40 1.33 1.33 1.40 1.45 1.36 1.33 1.29 1.26 1.25 1.24 1.24 1.29 1.24 1.25 1.23 1.32 1.50 1.66 1.62 1.73 1.78 1.76 1.59
1.14 1.32 1.53 1.58 1.69 1.80 1.93 1.88 1.88 1.85 1.97 1.91 1.87 1.85 1.84 1.86 1.85 1.80 1.75 1.69 1.57 1.59 1.51 1.41 1.34 1.33 1.25 1.20 1.17 1.18 1.31 1.32 1.28 1.27 1.34 1.50 1.65 1.76 1.62 1.73 1.82 1.73 1.53
1.08 1.17 1.28 1.48 1.57 1.72 1.74 1.68 1.69 1.85 2.00 1.94 1.90 1.89 1.89 1.89 1.97 1.94 1.89 1.83 1.76 1.66 1.46 1.43 1.36 1.31 1.26 1.37 1.46 1.48 1.43 1.48 1.58 1.59 1.67 1.74 1.87 1.79 1.74 1.77 1.76 1.70 1.57
1.11 1.17 1.20 1.31 1.54 1.64 1.71 1.77 1.80 1.75 1.72 1.78 1.94 1.91 1.90 1.94 1.97 1.99 2.03 1.95 1.71 1.63 1.54 1.44 1.34 1.28 1.39 1.50 1.61 1.67 1.75 1.85 1.89 1.91 1.90 1.92 2.01 1.91 1.88 1.87 1.79 1.67 1.59
1.13 1.12 1.16 1.25 1.43 1.58 1.76 1.83 1.83 1.89 1.80 1.80 1.82 1.84 1.86 1.90 2.10 2.00 2.00 1.85 1.67 1.56 1.59 1.54 1.52 1.53 1.54 1.65 1.71 1.75 1.82 1.88 2.00 1.92 1.90 1.85 1.96 2.01 2.06 2.14 2.00 1.81 1.59
1.15 1.13 1.08 1.13 1.32 1.48 1.56 1.66 1.75 1.77 1.78 1.82 1.75 1.71 1.79 1.81 1.87 1.96 2.02 1.93 1.78 1.62 1.54 1.45 1.58 1.69 1.77 1.77 1.74 1.75 1.75 1.72 1.75 1.71 1.70 1.70 1.65 1.68 1.57 2.00 1.97 1.60 1.41
1.15 1.16 1.10 1.08 1.16 1.33 1.43 1.53 1.69 1.76 1.80 1.79 1.82 1.91 1.92 1.85 1.82 1.86 1.87 1.94 1.78 1.68 1.65 1.69 1.71 1.78 1.77 1.80 1.81 1.74 1.66 1.63 1.69 1.68 1.66 1.59 1.56 1.47 1.63 1.92 1.67 1.54 1.47
1.15 1.17 1.15 1.10 1.17 1.22 1.27 1.33 1.46 1.67 1.73 1.73 1.74 1.84 2.03 2.06 2.07 1.97 1.85 1.85 1.69 1.69 1.75 1.77 1.78 1.79 1.71 1.64 1.69 1.71 1.67 1.68 1.71 1.67 1.62 1.65 1.60 1.71 1.91 1.82 1.67 1.52 1.44
1.08 1.15 1.15 1.19 1.18 1.21 1.22 1.26 1.37 1.41 1.57 1.66 1.70 1.73 1.82 1.91 1.91 1.86 1.76 1.66 1.66 1.68 1.69 1.71 1.71 1.68 1.68 1.65 1.61 1.58 1.59 1.62 1.67 1.69 1.64 1.72 1.99 1.84 1.79 1.69 1.58 1.46 1.36
1.02 1.12 1.13 1.16 1.19 1.17 1.20 1.23 1.21 1.29 1.33 1.37 1.46 1.55 1.64 1.69 1.68 1.66 1.64 1.60 1.61 1.67 1.68 1.68 1.71 1.70 1.73 1.71 1.70 1.67 1.64 1.65 1.70 1.74 1.77 1.74 1.67 1.66 1.63 1.51 1.40 1.41 1.38
0.96 1.10 1.05 1.11 1.19 1.22 1.17 1.21 1.21 1.27 1.31 1.32 1.40 1.48 1.44 1.48 1.60 1.62 1.59 1.60 1.63 1.66 1.66 1.62 1.63 1.62 1.62 1.62 1.63 1.68 1.75 1.73 1.77 1.73 1.66 1.64 1.64 1.60 1.45 1.39 1.25 1.16 1.17
1.00 1.05 1.06 1.08 1.13 1.14 1.17 1.19 1.24 1.28 1.42 1.40 1.45 1.49 1.55 1.51 1.54 1.60 1.66 1.62 1.64 1.62 1.64 1.63 1.61 1.57 1.55 1.57 1.61 1.66 1.59 1.59 1.64 1.64 1.60 1.54 1.46 1.38 1.29 1.20 1.17 1.13 1.11

GFSGL_prec_pwat_075.txt.gz
Precipitable_Water
1.39 1.39 1.34 1.19 1.05 1.12 1.22 1.36 1.40 1.50 1.53 1.56 1.54 1.56 1.55 1.54 1.60 1.50 1.37 1.44 1.41 1.41 1.28 1.23 1.19 1.27 1.24 1.24 1.27 1.27 1.26 1.24 1.02 1.10 1.22 1.34 1.35 1.37 1.40 1.47 1.54 1.57 1.60
1.36 1.37 1.35 1.31 1.21 1.00 1.06 1.20 1.35 1.34 1.44 1.60 1.58 1.53 1.58 1.56 1.53 1.47 1.36 1.30 1.34 1.32 1.38 1.33 1.26 1.26 1.19 1.24 1.23 1.16 1.16 1.25 1.15 0.98 1.16 1.24 1.30 1.36 1.34 1.32 1.35 1.55 1.43
1.38 1.37 1.37 1.33 1.28 1.18 0.99 0.99 1.19 1.29 1.31 1.43 1.53 1.52 1.49 1.52 1.52 1.47 1.41 1.28 1.26 1.32 1.37 1.39 1.35 1.33 1.15 1.15 1.19 1.15 1.19 1.29 1.30 1.20 1.15 1.27 1.25 1.26 1.21 1.31 1.35 1.16 1.29
1.54 1.43 1.33 1.35 1.33 1.29 1.25 1.07 0.94 1.08 1.21 1.28 1.39 1.47 1.49 1.48 1.52 1.49 1.41 1.33 1.22 1.19 1.28 1.37 1.44 1.39 1.34 1.29 1.28 1.24 1.25 1.26 1.30 1.24 1.17 1.14 1.14 1.23 1.27 1.11 0.93 1.14 1.21
1.70 1.57 1.44 1.39 1.39 1.40 1.34 1.30 1.19 0.96 0.99 1.14 1.27 1.40 1.48 1.48 1.43 1.41 1.41 1.37 1.31 1.26 1.23 1.19 1.19 1.28 1.37 1.43 1.37 1.30 1.33 1.27 1.23 1.18 1.10 1.08 1.04 1.03 0.99 1.08 1.08 1.20 1.33
1.76 1.67 1.69 1.59 1.55 1.44 1.41 1.35 1.35 1.26 1.01 0.98 1.06 1.19 1.28 1.40 1.41 1.39 1.39 1.36 1.31 1.25 1.19 1.19 1.18 1.13 1.14 1.21 1.29 1.36 1.39 1.28 1.20 1.16 1.08 0.99 0.97 1.00 1.01 1.05 1.08 1.16 1.15
1.79 1.79 1.75 1.74 1.69 1.63 1.58 1.49 1.39 1.34 1.33 1.17 1.00 1.02 1.09 1.21 1.31 1.35 1.38 1.38 1.28 1.23 1.20 1.18 1.15 1.17 1.12 1.09 1.13 1.14 1.17 1.25 1.29 1.21 1.06 1.01 0.95 1.00 1.09 1.04 1.15 1.29 1.35
1.76 1.84 1.81 1.79 1.74 1.71 1.65 1.55 1.48 1.43 1.36 1.32 1.27 1.20 1.04 1.02 1.09 1.18 1.23 1.31 1.31 1.26 1.22 1.21 1.18 1.14 1.14 1.09 1.07 1.05 1.07 1.09 1.08 1.11 1.09 1.03 1.11 1.13 1.23 1.26 1.31 1.44 1.61
1.74 1.78 1.86 1.89 1.80 1.78 1.66 1.56 1.55 1.56 1.47 1.36 1.31 1.30 1.27 1.17 1.14 1.10 1.12 1.18 1.21 1.18 1.18 1.19 1.20 1.15 1.14 1.15 1.12 1.04 1.02 1.03 1.13 1.12 1.12 1.11 1.10 1.18 1.30 1.38 1.29 1.40 1.41
1.76 1.89 1.97 1.93 1.90 1.84 1.77 1.67 1.59 1.62 1.59 1.60 1.43 1.33 1.31 1.32 1.31 1.25 1.22 1.15 1.10 1.12 1.18 1.16 1.15 1.15 1.15 1.17 1.18 1.15 1.04 0.97 1.05 1.06 1.10 1.16 1.20 1.22 1.34 1.48 1.58 1.48 1.49
1.84 1.88 1.95 1.93 1.94 1.94 1.90 1.87 1.81 1.72 1.70 1.65 1.58 1.54 1.38 1.31 1.36 1.37 1.31 1.24 1.15 1.10 1.10 1.09 1.07 1.06 1.10 1.13 1.21 1.22 1.13 1.20 1.15 1.13 1.09 1.11 1.12 1.19 1.41 1.66 1.74 1.73 1.53
1.82 1.84 1.83 1.91 1.91 2.00 2.00 1.96 1.91 1.81 1.73 1.67 1.61 1.55 1.57 1.51 1.38 1.31 1.33 1.34 1.33 1.23 1.12 1.11 1.08 1.05 1.04 1.08 1.17 1.20 1.25 1.28 1.22 1.10 1.07 1.01 1.02 1.16 1.51 1.65 1.76 1.84 1.82
1.63 1.67 1.66 1.67 1.75 1.83 1.91 1.92 1.89 1.87 1.74 1.69 1.66 1.55 1.52 1.62 1.58 1.45 1.32 1.26 1.28 1.29 1.27 1.23 1.19 1.12 1.10 1.13 1.17 1.22 1.28 1.26 1.15 1.04 0.96 0.95 1.13 1.41 1.56 1.60 1.76 1.87 1.88
1.26 1.41 1.56 1.58 1.61 1.72 1.79 1.90 1.89 1.75 1.72 1.77 1.67 1.54 1.57 1.62 1.63 1.59 1.49 1.43 1.34 1.30 1.31 1.29 1.27 1.26 1.25 1.23 1.25 1.28 1.30 1.27 1.19 1.09 1.03 1.12 1.29 1.39 1.41 1.55 1.64 1.78 1.68
1.16 1.16 1.29 1.39 1.56 1.59 1.72 1.79 1.88 1.80 1.84 1.71 1.75 1.69 1.64 1.53 1.50 1.69 1.67 1.54 1.47 1.39 1.36 1.32 1.25 1.24 1.22 1.22 1.21 1.23 1.29 1.31 1.23 1.19 1.14 1.15 1.24 1.34 1.37 1.61 1.76 1.72 1.56
1.03 1.02 1.06 1.21 1.39 1.60 1.66 1.80 2.00 1.97 1.96 1.86 1.86 1.81 1.81 1.81 1.81 1.78 1.75 1.75 1.76 1.78 1.59 1.33 1.23 1.24 1.21 1.22 1.21 1.19 1.27 1.29 1.26 1.25 1.23 1.24 1.25 1.29 1.38 1.62 1.86 1.68 1.67
0.97 1.00 1.07 1.11 1.30 1.51 1.62 1.68 1.62 1.84 1.91 1.91 1.94 1.91 1.97 1.97 1.91 1.93 1.94 1.91 1.93 1.91 1.62 1.50 1.42 1.33 1.28 1.30 1.34 1.35 1.24 1.36 1.46 1.36 1.28 1.28 1.33 1.48 1.53 1.72 1.77 1.77 1.74
1.01 1.05 1.11 1.09 1.17 1.38 1.55 1.67 1.78 1.78 1.71 1.73 1.91 1.90 1.95 1.98 1.95 1.95 1.92 1.95 1.92 1.92 1.85 1.73 1.58 1.55 1.45 1.43 1.46 1.42 1.46 1.54 1.53 1.50 1.46 1.44 1.51 1.57 1.64 1.70 1.76 1.73 1.70
0.93 1.01 1.10 1.15 1.17 1.22 1.44 1.56 1.72 1.75 1.66 1.69 1.84 1.87 1.93 1.96 1.95 1.93 1.87 1.83 1.89 1.84 1.84 1.83 1.81 1.70 1.66 1.59 1.48 1.52 1.51 1.61 1.64 1.64 1.67 1.74 1.79 1.77 1.70 1.73 1.70 1.63 1.56
0.86 0.96 1.08 1.17 1.16 1.12 1.20 1.39 1.50 1.61 1.68 1.80 1.81 1.75 1.87 1.95 1.87 1.83 1.85 1.85 1.94 1.94 1.98 1.89 1.89 1.85 1.77 1.80 1.78 1.76 1.62 1.70 1.72 1.73 1.75 1.69 1.65 1.62 1.52 1.57 1.54 1.49 1.46
0.84 0.90 1.00 1.17 1.13 1.10 1.10 1.14 1.29 1.43 1.49 1.59 1.71 1.79 1.80 1.85 1.89 1.88 1.82 1.89 1.94 2.13 2.15 1.99 1.95 1.96 1.85 1.78 1.74 1.70 1.66 1.72 1.78 1.84 1.82 1.74 1.69 1.55 1.56 1.57 1.54 1.51 1.52
0.79 0.84 0.91 0.97 1.07 1.07 1.08 1.12 1.16 1.22 1.26 1.38 1.51 1.70 1.77 1.87 1.88 1.90 1.87 1.84 1.80 1.87 1.96 1.95 1.89 1.89 1.81 1.72 1.69 1.77 1.73 1.75 1.80 1.82 1.81 1.80 1.74 1.65 1.61 1.61 1.60 1.55 1.63
0.77 0.80 0.83 0.93 1.02 1.00 1.07 1.09 1.08 1.05 1.08 1.19 1.31 1.38 1.52 1.63 1.71 1.75 1.75 1.80 1.81 1.85 1.86 1.87 1.88 1.81 1.76 1.75 1.82 1.84 1.83 1.81 1.76 1.74 1.69 1.67 1.64 1.61 1.63 1.60 1.63 1.65 1.65
0.75 0.80 0.81 0.84 0.96 1.04 1.05 1.02 1.01 1.04 1.06 1.08 1.19 1.21 1.28 1.36 1.51 1.54 1.59 1.70 1.73 1.75 1.81 1.83 1.79 1.69 1.69 1.72 1.74 1.74 1.71 1.73 1.76 1.75 1.75 1.75 1.76 1.76 1.76 1.71 1.65 1.55 1.55
0.77 0.79 0.81 0.83 0.88 0.92 0.98 1.01 1.06 1.09 1.06 1.09 1.14 1.14 1.13 1.19 1.29 1.37 1.44 1.53 1.54 1.64 1.73 1.69 1.62 1.60 1.61 1.63 1.64 1.66 1.68 1.72 1.74 1.80 1.83 1.81 1.73 1.76 1.76 1.71 1.69 1.66 1.58
0.79 0.80 0.80 0.82 0.86 0.93 0.99 1.03 1.06 1.05 1.06 1.09 1.18 1.13 1.11 1.26 1.32 1.30 1.27 1.33 1.40 1.51 1.55 1.55 1.52 1.56 1.58 1.60 1.62 1.66 1.66 1.68 1.71 1.74 1.80 1.78 1.71 1.67 1.66 1.70 1.69 1.60 1.46

GFSGL_prec_pwat_078.txt.gz
Precipitable_Water
1.40 1.45 1.45 1.39 1.28 1.18 1.20 1.24 1.34 1.43 1.52 1.49 1.54 1.56 1.63 1.67 1.65 1.61 1.61 1.52 1.43 1.41 1.40 1.27 1.23 1.32 1.30 1.32 1.32 1.32 1.30 1.27 1.07 1.15 1.25 1.33 1.33 1.40 1.43 1.43 1.42 1.45 1.52
1.50 1.45 1.45 1.49 1.44 1.29 1.13 1.14 1.20 1.25 1.34 1.39 1.49 1.49 1.55 1.57 1.66 1.57 1.52 1.53 1.36 1.31 1.34 1.36 1.23 1.24 1.22 1.26 1.28 1.24 1.26 1.28 1.16 1.01 1.18 1.23 1.28 1.37 1.37 1.29 1.31 1.43 1.30
1.55 1.53 1.49 1.47 1.43 1.38 1.28 1.13 1.09 1.16 1.22 1.30 1.35 1.43 1.44 1.45 1.51 1.54 1.56 1.48 1.40 1.28 1.32 1.34 1.36 1.40 1.32 1.29 1.23 1.16 1.22 1.24 1.25 1.16 1.12 1.30 1.30 1.32 1.20 1.24 1.24 1.19 1.23
1.63 1.53 1.52 1.49 1.45 1.43 1.41 1.31 1.17 1.07 1.06 1.15 1.24 1.29 1.39 1.45 1.49 1.48 1.47 1.46 1.38 1.32 1.27 1.30 1.37 1.38 1.40 1.39 1.33 1.26 1.23 1.20 1.19 1.19 1.20 1.19 1.22 1.26 1.23 1.09 1.02 1.16 1.07
1.71 1.58 1.46 1.49 1.51 1.51 1.47 1.42 1.38 1.27 1.04 1.00 1.11 1.21 1.27 1.33 1.38 1.41 1.41 1.38 1.37 1.30 1.30 1.30 1.28 1.28 1.32 1.38 1.36 1.33 1.35 1.24 1.22 1.19 1.13 1.14 1.12 1.11 1.06 1.17 1.10 1.13 1.07
1.78 1.71 1.67 1.60 1.54 1.48 1.46 1.44 1.42 1.40 1.34 1.14 0.95 1.03 1.09 1.20 1.26 1.33 1.35 1.33 1.35 1.33 1.26 1.29 1.31 1.28 1.25 1.24 1.23 1.26 1.29 1.22 1.18 1.17 1.13 1.06 1.06 1.10 1.12 1.10 1.09 1.00 0.92
1.71 1.73 1.76 1.80 1.69 1.57 1.56 1.49 1.39 1.38 1.40 1.34 1.26 1.03 0.96 1.05 1.13 1.15 1.21 1.26 1.25 1.26 1.26 1.26 1.24 1.27 1.25 1.22 1.20 1.18 1.16 1.20 1.22 1.16 1.02 1.03 1.00 1.05 1.10 1.03 1.07 1.04 1.07
1.72 1.77 1.79 1.80 1.77 1.78 1.66 1.58 1.53 1.46 1.39 1.35 1.33 1.35 1.23 1.07 1.03 1.07 1.10 1.17 1.16 1.16 1.16 1.17 1.19 1.22 1.25 1.22 1.18 1.14 1.12 1.11 1.09 1.12 1.10 1.08 1.11 1.12 1.14 1.12 1.13 1.18 1.28
1.75 1.80 1.87 1.88 1.85 1.86 1.78 1.71 1.66 1.61 1.50 1.39 1.33 1.33 1.31 1.31 1.32 1.19 1.08 1.07 1.06 1.05 1.09 1.09 1.10 1.11 1.16 1.19 1.17 1.08 1.08 1.03 1.15 1.18 1.20 1.18 1.17 1.17 1.23 1.17 1.04 1.07 1.09
1.75 1.80 1.87 1.89 1.90 1.90 1.94 1.90 1.93 1.79 1.66 1.58 1.46 1.43 1.35 1.29 1.38 1.37 1.36 1.29 1.08 1.01 1.02 1.03 1.03 1.05 1.07 1.13 1.12 1.07 0.98 0.96 1.09 1.14 1.18 1.19 1.20 1.19 1.21 1.21 1.13 1.05 1.29
1.79 1.84 1.86 1.91 1.90 1.96 2.05 2.05 1.93 1.90 1.92 1.69 1.55 1.48 1.40 1.35 1.34 1.33 1.34 1.34 1.30 1.18 1.08 1.03 1.04 1.02 1.04 1.07 1.12 1.11 1.01 1.12 1.16 1.20 1.19 1.14 1.12 1.12 1.12 1.20 1.25 1.34 1.41
1.47 1.74 1.84 1.87 1.92 1.95 1.92 1.98 1.96 1.94 1.82 1.71 1.71 1.56 1.52 1.47 1.41 1.40 1.37 1.29 1.33 1.28 1.15 1.16 1.14 1.10 1.07 1.10 1.14 1.09 1.10 1.18 1.21 1.18 1.13 1.02 0.98 0.98 1.07 1.20 1.34 1.54 1.68
1.21 1.28 1.52 1.76 1.87 1.90 1.91 1.89 1.86 1.88 1.88 1.80 1.80 1.65 1.55 1.56 1.50 1.47 1.45 1.43 1.34 1.25 1.27 1.26 1.28 1.24 1.22 1.22 1.18 1.14 1.14 1.14 1.12 1.08 1.05 1.00 1.06 1.11 1.16 1.23 1.38 1.53 1.63
1.12 1.23 1.30 1.42 1.54 1.74 1.87 1.83 1.86 1.89 1.89 1.87 1.88 1.78 1.68 1.66 1.62 1.60 1.51 1.50 1.49 1.42 1.35 1.25 1.24 1.26 1.26 1.25 1.19 1.17 1.16 1.14 1.13 1.11 1.12 1.18 1.26 1.18 1.11 1.23 1.21 1.35 1.42
1.09 1.20 1.23 1.27 1.43 1.44 1.59 1.69 1.75 1.84 1.93 1.93 1.91 1.91 1.73 1.63 1.67 1.77 1.73 1.63 1.59 1.55 1.56 1.43 1.28 1.20 1.12 1.13 1.11 1.11 1.13 1.15 1.13 1.19 1.21 1.21 1.24 1.21 1.11 1.24 1.24 1.30 1.38
1.06 1.11 1.13 1.15 1.22 1.35 1.30 1.50 1.79 1.84 1.93 2.03 2.03 2.05 1.94 1.87 1.87 1.84 1.82 1.77 1.73 1.74 1.60 1.35 1.22 1.20 1.11 1.09 1.05 1.04 1.11 1.14 1.19 1.24 1.26 1.29 1.26 1.23 1.16 1.23 1.31 1.29 1.36
0.98 1.07 1.11 1.15 1.17 1.18 1.23 1.27 1.38 1.71 1.84 1.90 1.97 2.06 1.97 1.88 1.81 1.79 1.76 1.78 1.78 1.76 1.57 1.50 1.42 1.44 1.36 1.32 1.28 1.19 1.14 1.22 1.34 1.36 1.36 1.30 1.27 1.26 1.23 1.22 1.27 1.28 1.35
0.92 0.97 1.08 1.12 1.19 1.12 1.16 1.19 1.22 1.47 1.61 1.73 1.98 1.96 1.98 1.90 1.84 1.87 1.93 1.91 1.77 1.77 1.73 1.72 1.69 1.71 1.71 1.64 1.59 1.52 1.40 1.41 1.42 1.46 1.44 1.42 1.39 1.32 1.20 1.15 1.22 1.29 1.52
0.86 0.93 0.99 1.05 1.12 1.08 1.13 1.17 1.18 1.29 1.54 1.72 1.79 1.71 1.86 1.89 1.92 1.92 1.93 1.86 1.75 1.69 1.69 1.76 1.84 1.88 1.88 1.91 1.90 1.83 1.73 1.64 1.64 1.60 1.50 1.42 1.43 1.45 1.37 1.36 1.39 1.53 1.77
0.82 0.88 0.93 0.98 1.04 1.00 1.06 1.06 1.11 1.11 1.32 1.59 1.72 1.72 1.82 1.81 1.78 1.77 1.83 1.88 1.89 1.87 1.85 1.76 1.79 1.91 1.97 1.95 1.94 1.90 1.88 1.77 1.72 1.73 1.67 1.60 1.70 1.76 1.75 1.75 1.78 1.74 1.72
0.76 0.79 0.83 0.91 0.96 0.93 0.98 1.06 1.09 1.12 1.11 1.34 1.45 1.64 1.74 1.77 1.87 1.89 1.81 1.89 1.91 1.89 1.86 1.85 1.89 1.96 2.05 2.13 2.14 1.99 1.93 1.92 1.82 1.75 1.70 1.70 1.74 1.66 1.72 1.73 1.75 1.71 1.65
0.76 0.76 0.80 0.83 0.90 0.90 0.93 0.98 1.09 1.12 1.11 1.11 1.35 1.46 1.51 1.65 1.73 1.83 1.84 1.82 1.83 1.88 1.95 1.94 1.86 1.82 1.91 2.01 2.05 2.00 1.97 1.95 1.96 1.88 1.77 1.91 1.92 1.94 1.89 1.79 1.73 1.68 1.66
0.73 0.74 0.76 0.80 0.83 0.86 0.88 0.91 0.98 1.08 1.10 1.13 1.14 1.25 1.29 1.37 1.40 1.49 1.58 1.65 1.69 1.71 1.79 1.85 1.88 1.81 1.77 1.81 1.93 1.90 1.87 1.83 1.87 1.83 1.79 1.89 1.93 1.94 1.87 1.79 1.69 1.59 1.55
0.71 0.72 0.73 0.75 0.77 0.80 0.82 0.85 0.89 1.01 1.10 1.13 1.08 1.15 1.17 1.17 1.28 1.31 1.35 1.38 1.46 1.57 1.64 1.70 1.77 1.78 1.77 1.85 1.89 1.92 1.93 1.93 1.88 1.84 1.87 1.89 1.88 1.88 1.84 1.75 1.71 1.72 1.75
0.71 0.72 0.73 0.75 0.75 0.77 0.81 0.85 0.85 0.90 1.00 1.01 1.02 1.09 1.15 1.19 1.18 1.14 1.16 1.24 1.28 1.35 1.40 1.47 1.55 1.61 1.65 1.71 1.75 1.84 1.87 1.84 1.84 1.87 1.88 1.86 1.82 1.81 1.78 1.79 1.74 1.77 1.81
0.71 0.73 0.74 0.76 0.77 0.79 0.81 0.85 0.86 0.90 0.92 0.96 1.01 1.07 1.10 1.10 1.12 1.11 1.09 1.14 1.17 1.25 1.36 1.27 1.30 1.46 1.46 1.48 1.58 1.65 1.75 1.76 1.76 1.78 1.78 1.75 1.69 1.70 1.66 1.68 1.74 1.73 1.72

GFSGL_prec_pwat_084.txt.gz
Precipitable_Water
1.57 1.54 1.58 1.59 1.60 1.61 1.51 1.46 1.47 1.59 1.71 1.79 1.75 1.82 1.78 1.79 1.79 1.74 1.62 1.58 1.49 1.49 1.42 1.35 1.33 1.35 1.29 1.30 1.34 1.32 1.28 1.26 1.08 1.15 1.29 1.37 1.43 1.37 1.41 1.47 1.47 1.36 1.33
1.64 1.63 1.61 1.66 1.66 1.61 1.58 1.51 1.46 1.45 1.54 1.78 1.80 1.78 1.78 1.76 1.74 1.67 1.62 1.60 1.57 1.45 1.41 1.39 1.35 1.33 1.26 1.24 1.25 1.22 1.21 1.26 1.17 1.04 1.16 1.18 1.27 1.34 1.36 1.35 1.37 1.33 1.34
1.63 1.63 1.64 1.63 1.67 1.63 1.57 1.62 1.59 1.49 1.42 1.53 1.65 1.64 1.72 1.70 1.74 1.74 1.64 1.62 1.61 1.59 1.52 1.37 1.33 1.36 1.31 1.26 1.28 1.28 1.33 1.34 1.27 1.17 1.12 1.24 1.26 1.31 1.31 1.32 1.29 1.31 1.26
1.64 1.60 1.57 1.61 1.58 1.58 1.70 1.60 1.64 1.65 1.54 1.36 1.43 1.51 1.57 1.66 1.67 1.70 1.65 1.61 1.59 1.57 1.54 1.47 1.37 1.33 1.33 1.39 1.38 1.38 1.41 1.35 1.31 1.21 1.16 1.18 1.25 1.34 1.34 1.22 1.11 1.19 1.14
1.65 1.62 1.58 1.64 1.69 1.68 1.59 1.72 1.62 1.63 1.63 1.59 1.41 1.32 1.39 1.47 1.54 1.64 1.61 1.55 1.56 1.51 1.51 1.46 1.41 1.35 1.31 1.35 1.37 1.39 1.40 1.35 1.27 1.22 1.18 1.17 1.18 1.21 1.16 1.13 1.07 1.10 1.13
1.73 1.72 1.74 1.73 1.71 1.66 1.66 1.65 1.64 1.64 1.60 1.61 1.54 1.44 1.25 1.22 1.32 1.41 1.48 1.61 1.59 1.55 1.44 1.42 1.42 1.36 1.31 1.29 1.26 1.21 1.24 1.18 1.09 1.03 1.00 0.98 1.03 1.08 1.12 1.08 1.06 0.98 0.89
1.93 1.98 1.97 1.94 1.83 1.79 1.72 1.69 1.65 1.58 1.61 1.58 1.53 1.50 1.41 1.34 1.17 1.16 1.29 1.36 1.42 1.47 1.46 1.41 1.37 1.37 1.32 1.30 1.26 1.21 1.19 1.19 1.18 1.14 1.02 1.00 0.95 1.05 1.08 1.06 1.06 1.04 0.97
1.79 1.87 1.91 1.95 1.98 1.89 1.82 1.80 1.74 1.71 1.63 1.56 1.54 1.52 1.45 1.42 1.39 1.26 1.09 1.12 1.25 1.34 1.38 1.40 1.36 1.28 1.32 1.30 1.26 1.24 1.22 1.26 1.22 1.18 1.11 1.08 1.10 1.15 1.13 1.15 1.13 1.13 1.11
1.52 1.67 1.79 1.88 1.87 1.89 1.92 1.95 1.94 1.76 1.67 1.62 1.59 1.57 1.53 1.46 1.43 1.37 1.32 1.25 1.10 1.07 1.22 1.30 1.31 1.26 1.24 1.23 1.18 1.12 1.13 1.18 1.30 1.26 1.19 1.16 1.18 1.15 1.15 1.12 0.96 0.96 0.86
1.16 1.46 1.60 1.70 1.77 1.85 1.94 1.98 2.10 2.10 1.93 1.79 1.65 1.61 1.60 1.51 1.54 1.47 1.43 1.38 1.27 1.17 1.09 1.16 1.21 1.19 1.20 1.19 1.12 1.08 1.00 1.01 1.08 1.13 1.21 1.18 1.19 1.18 1.15 1.16 1.10 0.96 0.90
1.07 1.15 1.39 1.58 1.69 1.84 1.86 1.91 1.98 2.05 2.13 2.04 1.96 1.79 1.72 1.67 1.64 1.58 1.52 1.47 1.36 1.28 1.24 1.19 1.19 1.20 1.16 1.13 1.13 1.09 0.98 1.07 1.07 1.10 1.11 1.12 1.13 1.18 1.28 1.34 1.27 1.14 0.98
0.96 1.04 1.11 1.25 1.50 1.69 1.82 1.88 1.95 1.97 1.96 2.01 2.03 2.01 1.97 1.86 1.78 1.71 1.65 1.61 1.54 1.40 1.30 1.33 1.36 1.37 1.27 1.23 1.24 1.18 1.15 1.12 1.07 0.99 0.99 1.01 1.04 1.05 1.16 1.25 1.37 1.34 1.31
0.84 0.89 1.01 1.09 1.12 1.28 1.42 1.63 1.78 1.89 1.90 1.88 1.84 1.88 1.95 2.05 2.03 1.90 1.78 1.67 1.61 1.55 1.49 1.44 1.45 1.45 1.40 1.32 1.30 1.31 1.29 1.24 1.14 1.02 0.94 0.98 1.06 1.06 1.14 1.21 1.31 1.37 1.38
0.75 0.77 0.87 0.94 0.99 1.09 1.16 1.27 1.45 1.61 1.72 1.80 1.82 1.81 1.92 2.03 2.10 2.08 2.02 1.88 1.76 1.63 1.49 1.43 1.45 1.46 1.41 1.35 1.33 1.31 1.30 1.26 1.16 1.08 1.07 1.08 1.12 1.09 1.07 1.18 1.17 1.20 1.25
0.66 0.72 0.74 0.79 0.91 0.97 1.10 1.11 1.17 1.33 1.51 1.60 1.79 1.84 1.87 1.90 2.11 2.19 2.06 2.04 2.10 1.99 1.84 1.68 1.55 1.48 1.37 1.31 1.25 1.25 1.28 1.26 1.18 1.20 1.18 1.15 1.13 1.09 1.07 1.15 1.16 1.17 1.15
0.57 0.60 0.68 0.71 0.73 0.86 0.97 1.10 1.16 1.20 1.27 1.40 1.56 1.68 1.75 1.81 1.93 2.00 2.02 2.05 2.07 2.22 2.05 1.80 1.64 1.57 1.51 1.44 1.33 1.28 1.24 1.20 1.22 1.23 1.19 1.18 1.13 1.10 1.08 1.13 1.18 1.19 1.18
0.60 0.60 0.59 0.67 0.70 0.71 0.81 0.93 1.04 1.11 1.18 1.19 1.36 1.50 1.68 1.77 1.92 1.99 1.97 1.90 2.03 2.19 2.15 2.00 1.85 1.77 1.70 1.69 1.65 1.53 1.43 1.42 1.45 1.32 1.23 1.19 1.14 1.12 1.10 1.08 1.13 1.22 1.23
0.67 0.64 0.58 0.55 0.66 0.70 0.71 0.81 0.93 0.96 0.93 0.98 1.19 1.38 1.48 1.68 1.78 1.92 1.88 1.83 1.80 1.91 2.11 2.09 2.00 2.01 1.91 1.92 1.84 1.77 1.72 1.69 1.61 1.57 1.52 1.42 1.33 1.25 1.19 1.18 1.25 1.29 1.31
0.67 0.64 0.63 0.61 0.59 0.67 0.72 0.73 0.82 0.90 0.93 0.96 1.09 1.29 1.40 1.42 1.61 1.69 1.78 1.76 1.77 1.89 1.82 2.06 2.08 2.07 2.02 1.93 1.89 1.86 1.81 1.77 1.78 1.76 1.71 1.72 1.73 1.69 1.59 1.57 1.51 1.52 1.53
0.70 0.67 0.64 0.62 0.59 0.59 0.67 0.71 0.74 0.82 0.89 0.93 1.01 1.12 1.28 1.29 1.25 1.37 1.69 1.79 1.83 1.99 2.05 2.07 2.07 2.06 1.99 1.97 1.96 1.95 1.94 1.92 1.96 1.98 1.97 1.95 1.98 1.99 1.91 1.90 1.84 1.72 1.68
0.69 0.68 0.65 0.63 0.61 0.60 0.61 0.67 0.73 0.78 0.81 0.84 0.92 1.08 1.16 1.16 1.15 1.28 1.44 1.72 1.82 1.87 1.99 2.01 2.18 2.12 2.06 2.05 2.11 2.10 2.09 2.14 2.17 2.12 2.05 2.04 2.05 1.95 1.97 1.94 1.94 1.96 1.92
0.65 0.66 0.66 0.64 0.63 0.62 0.61 0.66 0.71 0.74 0.78 0.80 0.82 0.97 1.09 1.12 1.16 1.19 1.27 1.51 1.71 1.74 1.86 1.94 1.99 2.00 2.00 1.92 1.91 1.94 1.93 1.99 2.03 2.07 2.11 2.14 2.11 2.08 2.08 2.05 2.02 2.01 2.01
0.63 0.60 0.60 0.63 0.65 0.65 0.65 0.64 0.66 0.70 0.73 0.78 0.79 0.82 0.99 1.05 1.09 1.13 1.13 1.21 1.50 1.59 1.74 1.79 1.82 1.84 1.87 1.81 1.88 1.90 1.83 1.83 1.85 1.84 1.93 2.01 2.08 2.04 2.04 1.99 1.98 1.95 1.93
0.60 0.59 0.59 0.60 0.62 0.64 0.66 0.63 0.64 0.66 0.69 0.75 0.78 0.81 0.85 0.98 1.07 1.08 1.14 1.21 1.26 1.49 1.56 1.65 1.73 1.75 1.69 1.66 1.73 1.79 1.82 1.81 1.80 1.88 1.99 2.01 2.06 2.05 1.96 1.96 1.96 1.99 1.96
0.60 0.61 0.62 0.61 0.62 0.62 0.64 0.64 0.63 0.65 0.67 0.71 0.76 0.81 0.86 0.92 1.04 1.06 1.09 1.14 1.20 1.30 1.42 1.49 1.54 1.61 1.58 1.54 1.52 1.55 1.58 1.72 1.84 1.88 1.94 1.94 1.93 1.89 1.86 1.80 1.79 1.81 1.83
0.61 0.62 0.64 0.64 0.64 0.64 0.63 0.62 0.63 0.66 0.67 0.68 0.73 0.78 0.86 0.87 0.91 1.03 1.09 1.14 1.15 1.24 1.26 1.27 1.34 1.37 1.41 1.41 1.41 1.42 1.44 1.51 1.59 1.65 1.64 1.60 1.54 1.54 1.55 1.53 1.53 1.53 1.55

GFSGL_prec_pwat_087.txt.gz
Precipitable_Water
1.62 1.65 1.68 1.69 1.73 1.72 1.64 1.58 1.47 1.47 1.59 1.67 1.92 1.79 1.89 1.82 1.79 1.76 1.72 1.79 1.57 1.51 1.44 1.42 1.37 1.30 1.33 1.37 1.38 1.34 1.31 1.29 1.12 1.19 1.29 1.37 1.40 1.32 1.31 1.37 1.38 1.32 1.38
1.67 1.64 1.63 1.70 1.75 1.73 1.69 1.71 1.66 1.51 1.47 1.54 1.77 1.83 1.88 1.86 1.86 1.78 1.68 1.60 1.59 1.49 1.46 1.45 1.38 1.36 1.25 1.22 1.29 1.30 1.27 1.33 1.24 1.11 1.19 1.15 1.20 1.30 1.32 1.32 1.36 1.34 1.33
1.70 1.67 1.65 1.66 1.69 1.71 1.70 1.73 1.73 1.66 1.56 1.47 1.57 1.78 1.91 1.86 1.84 1.86 1.81 1.67 1.65 1.63 1.59 1.49 1.39 1.41 1.36 1.35 1.33 1.20 1.25 1.38 1.35 1.22 1.17 1.27 1.27 1.33 1.27 1.39 1.36 1.34 1.43
1.97 1.76 1.64 1.65 1.72 1.71 1.77 1.78 1.76 1.75 1.65 1.59 1.46 1.53 1.69 1.77 1.76 1.77 1.79 1.73 1.74 1.68 1.67 1.59 1.49 1.42 1.38 1.38 1.34 1.32 1.26 1.24 1.24 1.16 1.17 1.22 1.25 1.31 1.34 1.29 1.24 1.23 1.18
1.82 1.96 1.83 1.72 1.75 1.74 1.71 1.70 1.78 1.73 1.70 1.68 1.61 1.52 1.46 1.51 1.57 1.58 1.64 1.67 1.63 1.69 1.70 1.63 1.53 1.44 1.41 1.40 1.38 1.40 1.34 1.34 1.30 1.23 1.16 1.20 1.21 1.27 1.23 1.22 1.03 1.13 1.17
1.90 1.80 1.79 1.80 1.73 1.76 1.80 1.75 1.76 1.68 1.76 1.75 1.63 1.59 1.51 1.44 1.34 1.37 1.51 1.51 1.59 1.62 1.64 1.63 1.57 1.51 1.39 1.27 1.19 1.17 1.33 1.24 1.10 1.03 0.99 0.95 1.03 1.06 1.08 1.07 1.09 0.94 0.86
1.77 1.80 1.75 1.74 1.75 1.73 1.76 1.76 1.77 1.72 1.73 1.64 1.68 1.64 1.56 1.53 1.44 1.25 1.23 1.31 1.38 1.48 1.48 1.49 1.51 1.50 1.50 1.41 1.31 1.23 1.17 1.12 1.10 1.07 0.99 0.98 0.93 1.02 1.05 0.96 0.96 1.02 0.88
1.66 1.75 1.79 1.78 1.75 1.81 1.86 1.88 1.88 1.84 1.78 1.75 1.67 1.68 1.66 1.65 1.59 1.47 1.32 1.25 1.21 1.24 1.35 1.51 1.49 1.38 1.44 1.56 1.45 1.36 1.34 1.29 1.21 1.19 1.14 1.09 1.13 1.18 1.18 1.17 1.09 1.12 1.11
1.22 1.52 1.74 1.80 1.79 1.82 1.88 1.95 2.02 1.99 1.95 1.82 1.83 1.76 1.69 1.67 1.68 1.60 1.52 1.42 1.30 1.22 1.17 1.15 1.29 1.41 1.43 1.30 1.33 1.35 1.30 1.28 1.39 1.42 1.39 1.34 1.28 1.25 1.24 1.18 1.01 0.92 0.79
0.99 1.09 1.30 1.60 1.75 1.76 1.80 1.88 1.94 2.02 1.99 2.01 1.96 1.88 1.80 1.71 1.73 1.69 1.64 1.57 1.43 1.35 1.37 1.29 1.16 1.07 1.20 1.35 1.27 1.19 1.11 1.12 1.23 1.19 1.26 1.32 1.33 1.28 1.25 1.23 1.13 0.96 0.91
0.94 0.99 1.06 1.16 1.33 1.60 1.73 1.83 1.86 1.85 1.89 2.03 2.11 2.11 2.06 1.88 1.83 1.76 1.67 1.64 1.51 1.43 1.40 1.37 1.38 1.29 1.20 1.15 1.20 1.24 1.18 1.27 1.27 1.22 1.20 1.18 1.18 1.25 1.35 1.41 1.41 1.28 1.09
0.79 0.86 0.93 1.00 1.09 1.14 1.40 1.56 1.72 1.78 1.80 1.88 1.90 2.00 2.16 2.19 2.09 1.98 1.81 1.76 1.72 1.58 1.49 1.48 1.49 1.48 1.39 1.33 1.33 1.31 1.33 1.37 1.37 1.22 1.08 1.01 1.01 1.07 1.15 1.27 1.38 1.46 1.46
0.63 0.69 0.80 0.87 0.92 1.04 1.03 1.16 1.34 1.56 1.67 1.76 1.77 1.83 1.93 2.06 2.18 2.25 2.15 2.04 1.90 1.79 1.76 1.71 1.68 1.65 1.58 1.49 1.41 1.38 1.40 1.39 1.33 1.25 1.14 1.06 1.06 1.07 1.11 1.17 1.23 1.45 1.53
0.53 0.54 0.62 0.72 0.78 0.81 0.95 0.99 0.99 1.15 1.39 1.54 1.64 1.71 1.77 1.92 2.08 2.18 2.29 2.25 2.12 2.01 1.93 1.83 1.74 1.68 1.63 1.53 1.51 1.45 1.43 1.40 1.34 1.25 1.21 1.22 1.19 1.13 1.08 1.17 1.15 1.14 1.19
0.56 0.53 0.52 0.57 0.64 0.70 0.78 0.86 0.94 0.99 1.05 1.17 1.27 1.38 1.51 1.65 1.85 2.03 1.97 2.00 2.08 2.13 2.03 1.95 1.86 1.69 1.51 1.46 1.46 1.46 1.51 1.47 1.33 1.24 1.25 1.24 1.20 1.16 1.13 1.20 1.16 1.12 1.11
0.63 0.59 0.55 0.56 0.56 0.59 0.64 0.69 0.82 0.92 0.98 1.05 1.15 1.19 1.25 1.37 1.56 1.63 1.78 1.92 1.98 2.08 2.05 2.01 1.93 1.94 1.80 1.69 1.60 1.52 1.54 1.53 1.43 1.37 1.29 1.25 1.23 1.24 1.21 1.22 1.20 1.13 1.08
0.61 0.65 0.63 0.59 0.60 0.58 0.58 0.61 0.62 0.74 0.86 0.95 1.04 1.11 1.16 1.19 1.33 1.46 1.59 1.70 1.84 1.96 1.91 1.88 1.87 1.92 2.00 2.06 1.93 1.81 1.73 1.75 1.69 1.53 1.43 1.40 1.36 1.29 1.22 1.17 1.15 1.13 1.09
0.59 0.63 0.65 0.63 0.62 0.59 0.57 0.57 0.58 0.62 0.66 0.71 0.88 1.02 1.08 1.12 1.17 1.28 1.36 1.52 1.58 1.73 1.80 1.81 1.80 1.91 1.94 1.99 2.12 2.06 1.99 2.03 1.92 1.84 1.76 1.71 1.61 1.47 1.35 1.26 1.24 1.20 1.17
0.54 0.59 0.64 0.66 0.66 0.64 0.62 0.62 0.59 0.54 0.57 0.66 0.72 0.79 1.01 1.12 1.13 1.15 1.23 1.27 1.43 1.60 1.77 1.84 1.83 1.89 1.88 1.80 1.78 2.10 2.17 2.19 2.22 2.09 1.99 1.91 1.82 1.80 1.76 1.67 1.57 1.53 1.52
0.53 0.56 0.61 0.65 0.68 0.65 0.63 0.60 0.59 0.57 0.54 0.56 0.65 0.71 0.82 0.97 1.01 1.01 1.05 1.16 1.34 1.52 1.58 1.84 2.04 1.98 1.90 1.85 1.79 2.02 2.15 2.20 2.21 2.09 2.01 1.97 1.92 1.94 1.86 1.85 1.88 1.89 1.93
0.50 0.53 0.57 0.59 0.64 0.65 0.64 0.63 0.62 0.60 0.56 0.55 0.58 0.71 0.81 0.82 0.87 0.92 0.96 1.04 1.17 1.29 1.40 1.63 1.91 2.04 2.10 2.14 2.11 2.13 2.19 2.21 2.24 2.23 2.17 2.10 2.04 1.99 2.06 2.09 2.10 2.13 2.09
0.53 0.54 0.57 0.58 0.61 0.62 0.64 0.65 0.62 0.61 0.60 0.60 0.60 0.64 0.75 0.78 0.80 0.86 0.94 1.00 1.08 1.18 1.29 1.38 1.71 1.89 1.96 2.00 1.98 2.05 2.11 2.13 2.13 2.20 2.24 2.22 2.20 2.19 2.17 2.15 2.14 2.10 2.07
0.50 0.51 0.53 0.56 0.59 0.60 0.60 0.61 0.61 0.61 0.60 0.62 0.63 0.60 0.62 0.71 0.77 0.80 0.83 0.94 1.04 1.07 1.17 1.25 1.46 1.74 1.85 1.94 1.98 1.96 1.90 1.95 1.96 1.99 2.01 2.01 1.95 1.89 1.96 1.98 1.95 1.90 1.99
0.50 0.51 0.52 0.55 0.57 0.57 0.57 0.56 0.58 0.60 0.61 0.61 0.62 0.62 0.60 0.62 0.73 0.76 0.80 0.84 0.98 1.05 1.10 1.18 1.27 1.48 1.67 1.77 1.78 1.81 1.83 1.84 1.86 1.86 1.90 1.86 1.82 1.84 1.87 1.86 1.82 1.77 1.81
0.51 0.51 0.52 0.53 0.55 0.56 0.56 0.56 0.57 0.58 0.60 0.61 0.61 0.61 0.63 0.61 0.65 0.75 0.78 0.82 0.91 1.04 1.07 1.13 1.16 1.24 1.44 1.56 1.65 1.69 1.73 1.74 1.76 1.84 1.83 1.76 1.69 1.71 1.78 1.76 1.73 1.69 1.66
0.53 0.52 0.53 0.53 0.53 0.54 0.55 0.55 0.57 0.59 0.59 0.60 0.62 0.62 0.62 0.62 0.62 0.70 0.77 0.79 0.84 1.00 1.07 1.11 1.16 1.19 1.28 1.39 1.48 1.58 1.63 1.73 1.72 1.67 1.64 1.56 1.48 1.46 1.56 1.59 1.57 1.48 1.54